GFSFLT2_con_lsi_120.txt.gz
Lid_Strength_Index
12 11 12 11 9 9 8 9 9 8 7 4 6 5 4 3 1 1 1 0 0 -0 -0 -0 -0 -0 -0
13 13 13 11 11 11 8 10 10 9 8 6 7 7 7 5 4 2 1 1 1 1 -0 -0 -0 -0 -0
14 13 13 12 12 11 11 10 10 11 9 9 9 9 9 6 6 5 5 2 2 2 2 1 1 0 -0
14 13 13 13 12 13 13 12 12 12 11 12 11 11 10 9 9 7 6 6 5 3 3 3 3 2 1
12 12 13 13 14 13 14 13 13 12 13 14 13 13 12 10 9 8 7 7 6 5 4 3 4 3 3
12 13 13 13 12 13 13 14 15 13 14 13 13 14 12 11 10 10 9 7 7 6 6 5 5 4 4
12 12 12 11 11 12 12 12 13 13 14 15 13 14 13 11 10 9 8 8 8 7 7 6 6 5 5
10 10 10 9 9 9 10 11 13 13 13 17 14 14 13 13 10 9 9 9 8 8 7 6 6 6 6
7 6 6 6 7 10 11 12 14 14 13 13 14 15 15 15 11 12 11 12 11 10 8 7 6 6 6
10 9 8 9 7 9 11 13 13 14 12 15 15 16 17 15 15 15 14 13 12 11 10 8 7 6 6
11 11 10 9 9 9 9 11 12 14 12 14 17 16 16 16 15 16 16 15 14 13 10 10 8 6 7
11 11 11 10 10 10 10 10 11 11 11 13 14 17 17 18 18 16 16 15 15 14 14 11 9 6 7
12 11 11 10 9 9 9 9 10 10 10 12 17 16 19 17 18 17 16 16 15 15 14 13 12 10 11
12 11 10 10 9 8 9 8 10 10 9 10 13 16 16 16 16 16 15 17 16 14 15 14 12 11 11
12 11 10 9 9 8 8 8 10 10 10 10 12 12 14 15 17 15 14 15 14 15 14 15 13 12 11
12 11 11 11 10 8 7 9 10 10 11 13 15 16 18 15 12 14 14 14 14 14 15 14 14 13 11
12 12 12 11 9 9 9 9 10 10 11 15 18 13 15 17 15 10 12 12 13 14 14 14 13 13 12

GFSFLT2_con_lsi_123.txt.gz
Lid_Strength_Index
10 9 10 10 10 9 8 8 8 8 8 7 7 8 7 6 6 5 5 4 0 -0 -0 -0 -0 -0 -0
11 10 10 10 10 10 10 9 9 9 8 7 9 9 9 8 7 7 6 6 5 3 0 -0 -0 -0 -0
12 10 10 10 10 10 10 10 9 9 8 9 9 9 9 9 9 8 7 7 6 6 4 1 0 0 -0
11 11 10 10 10 11 11 10 10 10 9 9 9 9 10 10 9 10 9 9 7 6 6 5 2 2 1
11 11 11 11 11 10 11 10 9 9 10 10 10 10 10 10 10 10 10 9 8 7 6 6 5 2 2
10 11 10 10 9 9 10 11 12 8 10 10 10 10 9 9 10 10 9 8 8 8 7 6 6 6 4
10 10 10 9 9 9 10 10 10 9 9 11 10 11 9 10 10 10 10 10 11 10 9 8 8 6 6
8 8 8 8 8 8 9 9 8 8 9 12 9 10 10 10 10 10 11 12 12 11 11 11 10 8 7
7 6 6 6 7 8 9 10 11 10 8 10 10 11 10 10 10 11 11 12 12 12 12 11 9 8 7
8 8 8 8 8 8 8 10 11 11 8 10 10 11 13 10 11 11 12 12 13 13 12 11 11 10 9
10 10 10 9 9 8 8 9 10 11 8 8 9 10 12 13 11 12 12 13 14 13 12 12 11 10 10
12 11 11 10 9 8 8 8 7 8 7 8 10 10 11 13 14 11 12 13 13 14 14 13 12 11 10
12 12 11 10 9 9 8 8 8 7 7 6 8 9 11 13 13 13 13 13 13 14 13 14 13 13 13
12 12 11 10 10 9 9 9 9 8 6 6 7 8 11 11 12 13 13 14 14 14 14 14 13 13 12
12 12 11 10 9 9 9 9 10 9 7 6 6 7 8 10 13 12 13 13 12 13 14 15 13 13 13
12 11 11 10 10 9 8 8 8 8 9 7 7 8 8 8 9 11 12 12 11 13 14 15 15 13 12
11 10 10 9 9 9 9 8 9 9 9 7 9 10 10 11 9 8 11 12 12 13 13 13 14 14 13

GFSFLT2_con_lsi_129.txt.gz
Lid_Strength_Index
10 10 10 10 10 9 9 9 9 8 8 7 7 7 7 7 8 7 7 7 6 6 5 4 3 3 3
12 11 11 10 10 10 10 10 10 8 8 7 7 7 7 7 7 8 7 7 7 6 6 5 4 3 3
12 11 11 10 10 10 11 10 9 8 8 7 6 6 6 6 7 7 7 9 8 7 6 6 6 5 5
13 12 11 10 11 11 11 10 10 9 8 7 6 6 6 6 6 7 7 8 8 7 7 7 7 7 6
12 12 12 12 12 11 11 10 10 8 8 8 8 8 7 6 6 6 6 7 7 7 8 8 8 8 7
13 13 12 12 11 11 11 12 12 8 9 9 8 9 8 7 6 5 6 6 6 7 8 8 9 9 8
12 12 12 11 11 11 10 10 10 9 9 11 9 9 8 7 6 6 5 5 6 7 7 8 9 9 9
10 10 9 9 9 9 9 9 9 9 9 12 10 10 9 8 7 6 6 6 6 6 7 8 8 9 9
8 7 7 6 7 8 10 11 12 11 10 11 11 11 11 10 9 6 6 6 6 6 7 8 8 9 10
9 8 7 8 7 9 10 12 12 13 10 11 12 12 13 11 10 9 9 7 6 6 6 7 8 10 11
10 9 9 10 10 9 10 10 12 13 10 10 12 12 12 13 11 9 9 8 8 7 6 7 8 9 12
11 11 11 11 10 10 10 10 10 11 10 9 11 11 11 11 11 9 8 7 7 8 8 7 8 8 9
12 11 11 10 10 11 10 9 9 8 7 7 7 8 8 9 9 9 8 7 7 8 9 9 10 10 12
11 11 10 11 11 10 9 9 9 8 6 6 7 7 8 7 7 8 8 9 8 8 9 9 9 10 11
11 11 11 11 10 9 9 9 10 10 9 8 6 6 6 7 8 8 8 8 7 8 9 11 10 11 11
11 11 12 11 11 10 10 10 11 10 9 9 8 9 9 8 5 8 7 7 7 7 9 11 12 11 10
12 12 11 11 11 11 11 11 11 11 10 9 9 10 11 12 8 4 8 8 7 8 9 10 12 11 11

GFSFLT2_con_lsi_135.txt.gz
Lid_Strength_Index
13 13 13 13 13 12 12 12 12 10 9 8 9 9 8 8 8 8 7 7 7 6 7 7 6 6 6
14 14 13 13 13 14 12 11 12 10 9 9 9 8 8 8 8 8 8 8 8 7 7 7 6 6 6
14 13 14 14 14 14 14 13 12 10 10 9 9 8 8 8 9 8 9 8 8 8 7 7 7 7 7
15 15 15 14 14 15 15 14 14 12 11 10 9 9 9 9 9 9 9 8 8 7 7 7 7 6 6
15 16 16 16 16 15 15 15 14 14 14 13 12 12 12 10 10 9 8 8 7 7 7 7 6 6 6
15 16 16 16 16 15 15 15 16 13 14 12 12 12 12 11 9 8 8 7 7 7 6 5 6 6 6
14 14 14 14 14 14 15 15 14 12 12 12 12 13 12 10 8 7 7 6 6 6 6 6 6 6 6
13 13 14 13 12 12 12 12 11 11 12 15 13 13 12 11 7 7 7 7 6 6 6 7 7 6 6
9 9 9 9 9 11 14 15 14 14 13 14 13 13 12 12 11 8 8 7 8 7 7 7 7 7 8
12 11 10 11 9 12 13 16 15 15 12 14 13 12 14 13 12 11 11 8 7 7 7 7 7 9 10
11 12 13 13 12 12 12 13 15 14 12 12 14 14 13 13 12 12 11 10 10 8 6 5 5 7 10
12 13 14 13 13 13 12 12 12 12 11 12 19 15 13 13 13 11 11 10 10 9 8 5 4 4 5
13 13 13 12 12 13 12 12 12 11 10 10 12 12 12 13 13 12 12 11 9 9 8 8 7 7 8
14 13 12 14 13 12 12 13 13 12 11 11 11 12 13 13 12 13 11 12 10 9 9 8 7 6 6
14 13 12 11 11 11 11 12 13 13 13 12 12 12 12 13 13 12 12 11 10 10 10 9 7 6 5
14 13 12 12 12 13 13 13 13 13 14 13 15 19 14 13 9 12 11 11 11 10 9 10 9 6 6
12 12 12 13 13 13 14 14 14 14 14 13 15 16 16 17 12 8 11 11 11 11 10 10 10 8 7